ATLAS 5 CENTAUR DEB, 44686

Orbit data source: Space-Track

ATLAS 5 CENTAUR DEB, 44686 is space debris in HEO originally from a launch on Wed, 17 Oct 2018 UTC launched from the Air Force Eastern Test Range (AFETR). Debris objects in space refer to the collection of defunct objects orbiting the Earth. Examples of debris include non-operational satellites, rocket bodies, and fragments generated from explosions, collisions, or faulty payload assembly.

Loading next visibility...
Identifier
44686, 2018-079AY
Orbit
HEO
Country
Flag of USUS
Related business
Flag of USUnited Launch Alliance/Lockheed Martin (US)
Manufacturer
ULA Decatur
Mission
Spacecraft
Bus & Motor
Unknown
Mass
Unknown
Launch date (UTC)
2018-10-17 (8 years ago)
Launch vehicle
Unknown
Launch site
Air Force Eastern Test Range (AFETR)
Object type
Payload
Rocket body
Debris
Shape & HBR
Unknown shape, 1.1 m
Radar Cross Section
Large (>1 m²)

Expand to show TLE details & history
Last TLE update: 3 days ago

TLE from 3 days ago
0 ATLAS 5 CENTAUR DEB
1 44686U 18079AY  26233.05793508 -.00000175  00000-0  00000+0 0  9999
2 44686  12.7611  68.7677 4630737 247.7299  57.7575  1.69096142 44674
Epoch: 2026-08-21T01:23Z
TLE epoch observation values (Epoch: 2026-08-21T01:23:25.590Z)
Latitude
-0.00001°
Longitude
78.61862°
Altitude
21,972.015 km
Speed
3.838 km/s
True Right ascension
04h 35m 27s
True Declination
0° 00' 00"
Sunlit
Object was in daylight at epoch
Visualization orbit readout
Latitude
Unknown
Longitude
Unknown
Altitude
Unknown
Speed
Unknown
Apparent Right ascension
Unknown
Apparent Declination
Unknown
Sunlit
N/A
Visualization observer readout
Local Sidereal Time
20:00:10
Azimuth
Unknown
Elevation
Unknown
Doppler factor
Unknown
Orbital elements
Apogee altitude
37,167.16 km
Perigee altitude
9,602.34 km
Semi-major axis
29,762.887 km
Eccentricity
0.46307
Inclination
12.7611°
RAAN
68.7677°
Arg. of periapsis
247.7299°
True anomaly
112.27565°
Mean anomaly
57.7575°
Eccentric anomaly
84.15157°
Mean motion
0.4227 °/min
Orbital period
851.67 mins
BSTAR
0
Loading maneuver chart data...
Computing Atmospheric mass density...

Documentation

Showing up to 5 results
|